| time (UTC) | temp C | wind direction | speed KPH | gust KPH | rain 1hr cm | rain 24hr cm | rain mn cm | humidity % | barometer mb |
| 20260510104230 | 7 | 292 | 0.0 | 1.6 | 0.00 | 0.00 | 0.00 | 99 | 1009.0 |
| 20260510103725 | 7 | 282 | 0.0 | 0.0 | 0.00 | 0.00 | 0.00 | 99 | 1009.3 |
| 20260510103224 | 7 | 284 | 0.0 | 0.0 | 0.00 | 0.00 | 0.00 | 99 | 1009.1 |
| 20260510102722 | 7 | 287 | 0.0 | 1.6 | 0.00 | 0.00 | 0.00 | 99 | 1008.8 |
| 20260510102218 | 7 | 273 | 0.0 | 0.0 | 0.00 | 0.00 | 0.00 | 99 | 1008.9 |
| 20260510101716 | 6 | 285 | 0.0 | 1.6 | 0.00 | 0.00 | 0.00 | 99 | 1008.7 |
| 20260510101214 | 6 | 282 | 0.0 | 1.6 | 0.00 | 0.00 | 0.00 | 99 | 1008.8 |
| 20260510100705 | 6 | 288 | 0.0 | 1.6 | 0.00 | 0.00 | 0.00 | 99 | 1008.4 |
| 20260510100203 | 6 | 285 | 0.0 | 0.0 | 0.00 | 0.00 | 0.00 | 99 | 1008.7 |
| 20260510095658 | 6 | 284 | 0.0 | 1.6 | 0.00 | 0.00 | 0.00 | 99 | 1008.5 |
| 20260510095153 | 6 | 283 | 0.0 | 0.0 | 0.00 | 0.00 | 0.00 | 99 | 1008.6 |
| 20260510094652 | 6 | 285 | 0.0 | 0.0 | 0.00 | 0.00 | 0.00 | 99 | 1008.8 |
| 20260510094148 | 7 | 285 | 0.0 | 0.0 | 0.00 | 0.00 | 0.00 | 99 | 1008.6 |
| 20260510093644 | 7 | 285 | 0.0 | 0.0 | 0.00 | 0.00 | 0.00 | 99 | 1008.5 |
| 20260510093142 | 7 | 285 | 0.0 | 0.0 | 0.00 | 0.00 | 0.00 | 99 | 1008.5 |
| 20260510092638 | 7 | 285 | 0.0 | 0.0 | 0.00 | 0.00 | 0.00 | 99 | 1008.2 |
| 20260510092133 | 7 | 285 | 0.0 | 0.0 | 0.00 | 0.00 | 0.00 | 99 | 1008.2 |
| 20260510091630 | 7 | 285 | 0.0 | 0.0 | 0.00 | 0.00 | 0.00 | 99 | 1008.0 |
| 20260510091126 | 7 | 284 | 0.0 | 0.0 | 0.00 | 0.00 | 0.00 | 99 | 1007.9 |
| 20260510090622 | 7 | 284 | 0.0 | 3.2 | 0.00 | 0.00 | 0.00 | 99 | 1007.7 |
| 20260510090119 | 7 | 286 | 0.0 | 0.0 | 0.00 | 0.00 | 0.00 | 99 | 1007.7 |
| 20260510085613 | 7 | 288 | 0.0 | 0.0 | 0.00 | 0.00 | 0.00 | 99 | 1007.9 |
| 20260510085109 | 8 | 282 | 1.6 | 1.6 | 0.00 | 0.00 | 0.00 | 99 | 1007.7 |
| 20260510084606 | 8 | 292 | 1.6 | 3.2 | 0.00 | 0.00 | 0.00 | 99 | 1007.6 |
| 20260510084102 | 8 | 291 | 0.0 | 0.0 | 0.00 | 0.00 | 0.00 | 99 | 1007.7 |
| 20260510083559 | 8 | 288 | 0.0 | 1.6 | 0.00 | 0.00 | 0.00 | 99 | 1007.2 |
| 20260510083055 | 8 | 307 | 0.0 | 1.6 | 0.00 | 0.00 | 0.00 | 99 | 1007.2 |
| 20260510082552 | 9 | 308 | 0.0 | 4.8 | 0.00 | 0.00 | 0.00 | 99 | 1007.0 |
| 20260510082048 | 10 | 327 | 3.2 | 4.8 | 0.00 | 0.00 | 0.00 | 99 | 1006.8 |
| 20260510081543 | 10 | 43 | 1.6 | 1.6 | 0.00 | 0.00 | 0.00 | 99 | 1007.0 |
| 20260510081033 | 10 | 296 | 0.0 | 1.6 | 0.00 | 0.00 | 0.00 | 99 | 1006.9 |
| 20260510080533 | 10 | 292 | 1.6 | 3.2 | 0.00 | 0.00 | 0.00 | 99 | 1006.9 |
| 20260510080030 | 10 | 8 | 1.6 | 4.8 | 0.00 | 0.00 | 0.00 | 99 | 1007.1 |
| 20260510075527 | 11 | 299 | 0.0 | 0.0 | 0.00 | 0.00 | 0.00 | 99 | 1006.8 |
| 20260510075024 | 11 | 278 | 0.0 | 0.0 | 0.00 | 0.00 | 0.00 | 99 | 1006.8 |
| 20260510074522 | 11 | 269 | 0.0 | 1.6 | 0.00 | 0.00 | 0.00 | 99 | 1006.6 |
| 20260510074022 | 10 | 263 | 0.0 | 9.7 | 0.00 | 0.00 | 0.00 | 99 | 1006.4 |
| 20260510073518 | 10 | 294 | 0.0 | 0.0 | 0.00 | 0.00 | 0.00 | 99 | 1006.3 |
| 20260510073015 | 10 | 298 | 0.0 | 1.6 | 0.00 | 0.00 | 0.00 | 99 | 1006.6 |
| 20260510072512 | 10 | 307 | 1.6 | 3.2 | 0.00 | 0.00 | 0.00 | 99 | 1006.3 |
| 20260510072007 | 11 | 291 | 0.0 | 3.2 | 0.00 | 0.00 | 0.00 | 99 | 1006.3 |
| 20260510071504 | 11 | 310 | 1.6 | 3.2 | 0.00 | 0.00 | 0.00 | 99 | 1006.5 |
| 20260510071002 | 10 | 301 | 1.6 | 3.2 | 0.00 | 0.00 | 0.00 | 99 | 1006.4 |
| 20260510070459 | 10 | 287 | 0.0 | 1.6 | 0.00 | 0.00 | 0.00 | 99 | 1006.0 |
| 20260510065954 | 10 | 288 | 0.0 | 1.6 | 0.00 | 0.00 | 0.00 | 99 | 1006.1 |
| 20260510065452 | 11 | 283 | 0.0 | 1.6 | 0.00 | 0.00 | 0.00 | 99 | 1005.9 |
| 20260510064947 | 11 | 289 | 0.0 | 3.2 | 0.00 | 0.00 | 0.00 | 99 | 1005.9 |
| 20260510064445 | 11 | 288 | 1.6 | 1.6 | 0.00 | 0.00 | 0.00 | 99 | 1006.0 |
| 20260510063942 | 10 | 294 | 1.6 | 1.6 | 0.00 | 0.00 | 0.00 | 99 | 1005.9 |
| 20260510063437 | 10 | 284 | 0.0 | 0.0 | 0.00 | 0.00 | 0.00 | 99 | 1005.9 |
| 20260510062936 | 10 | 281 | 0.0 | 0.0 | 0.00 | 0.00 | 0.00 | 99 | 1005.7 |
| 20260510062436 | 10 | 284 | 0.0 | 0.0 | 0.00 | 0.00 | 0.00 | 99 | 1005.8 |
| 20260510061932 | 10 | 283 | 0.0 | 0.0 | 0.00 | 0.00 | 0.00 | 99 | 1006.1 |
| 20260510061429 | 10 | 281 | 0.0 | 0.0 | 0.00 | 0.00 | 0.00 | 99 | 1005.8 |
| 20260510060925 | 10 | 281 | 0.0 | 0.0 | 0.00 | 0.00 | 0.00 | 99 | 1005.8 |
| 20260510060422 | 10 | 283 | 0.0 | 0.0 | 0.00 | 0.00 | 0.00 | 99 | 1005.7 |
| 20260510055918 | 10 | 272 | 0.0 | 0.0 | 0.00 | 0.00 | 0.00 | 99 | 1005.6 |
| 20260510055414 | 11 | 270 | 0.0 | 0.0 | 0.00 | 0.00 | 0.00 | 99 | 1005.6 |
| 20260510054913 | 11 | 287 | 0.0 | 1.6 | 0.00 | 0.00 | 0.00 | 99 | 1005.5 |
| 20260510054408 | 11 | 273 | 0.0 | 0.0 | 0.00 | 0.00 | 0.00 | 99 | 1005.3 |
| 20260510053903 | 11 | 283 | 0.0 | 0.0 | 0.00 | 0.00 | 0.00 | 99 | 1005.0 |
| 20260510053359 | 11 | 281 | 0.0 | 0.0 | 0.00 | 0.00 | 0.00 | 99 | 1005.1 |
| 20260510052855 | 11 | 269 | 0.0 | 1.6 | 0.00 | 0.00 | 0.00 | 99 | 1005.3 |
| 20260510052351 | 11 | 270 | 0.0 | 1.6 | 0.00 | 0.00 | 0.00 | 99 | 1005.1 |
| 20260510051847 | 11 | 268 | 0.0 | 3.2 | 0.00 | 0.00 | 0.00 | 99 | 1005.3 |
| 20260510051344 | 11 | 293 | 0.0 | 3.2 | 0.00 | 0.00 | 0.00 | 99 | 1005.2 |
| 20260510050841 | 11 | 230 | 0.0 | 1.6 | 0.00 | 0.00 | 0.00 | 99 | 1005.5 |
| 20260510050337 | 11 | 249 | 0.0 | 1.6 | 0.00 | 0.00 | 0.00 | 99 | 1005.4 |
| 20260510045835 | 11 | 300 | 4.8 | 4.8 | 0.00 | 0.00 | 0.00 | 99 | 1005.6 |
| 20260510045331 | 12 | 103 | 1.6 | 3.2 | 0.00 | 0.00 | 0.00 | 99 | 1005.6 |
| 20260510044829 | 11 | 18 | 1.6 | 3.2 | 0.00 | 0.00 | 0.00 | 99 | 1005.5 |
| 20260510044325 | 11 | 13 | 1.6 | 3.2 | 0.00 | 0.00 | 0.00 | 99 | 1005.3 |
| 20260510043822 | 11 | 280 | 1.6 | 1.6 | 0.00 | 0.00 | 0.00 | 99 | 1004.9 |
| 20260510043318 | 11 | 231 | 0.0 | 1.6 | 0.00 | 0.00 | 0.00 | 99 | 1005.0 |
| 20260510042816 | 11 | 267 | 0.0 | 0.0 | 0.00 | 0.00 | 0.00 | 99 | 1004.9 |
| 20260510042311 | 11 | 260 | 0.0 | 1.6 | 0.00 | 0.00 | 0.00 | 99 | 1005.0 |
| 20260510041808 | 11 | 273 | 0.0 | 0.0 | 0.00 | 0.00 | 0.00 | 99 | 1004.9 |
| 20260510041305 | 11 | 275 | 0.0 | 1.6 | 0.00 | 0.00 | 0.00 | 99 | 1005.0 |
| 20260510040803 | 11 | 296 | 1.6 | 1.6 | 0.00 | 0.00 | 0.00 | 99 | 1004.8 |
| 20260510040259 | 11 | 255 | 0.0 | 0.0 | 0.00 | 0.00 | 0.00 | 99 | 1004.8 |
| 20260510035754 | 11 | 270 | 0.0 | 1.6 | 0.00 | 1.78 | 1.78 | 99 | 1004.9 |
| 20260510035250 | 11 | 262 | 0.0 | 0.0 | 0.00 | 1.78 | 1.78 | 99 | 1004.8 |
| 20260510034741 | 12 | 257 | 1.6 | 3.2 | 0.00 | 1.78 | 1.78 | 99 | 1004.9 |
| 20260510034239 | 12 | 270 | 0.0 | 1.6 | 0.00 | 1.78 | 1.78 | 99 | 1005.0 |
| 20260510033735 | 12 | 172 | 3.2 | 3.2 | 0.00 | 1.78 | 1.78 | 99 | 1004.9 |
| 20260510033233 | 12 | 253 | 0.0 | 1.6 | 0.00 | 1.78 | 1.78 | 99 | 1004.8 |
| 20260510032728 | 12 | 271 | 0.0 | 0.0 | 0.00 | 1.78 | 1.78 | 99 | 1004.9 |
| 20260510032225 | 12 | 274 | 0.0 | 0.0 | 0.00 | 1.78 | 1.78 | 99 | 1005.0 |
| 20260510031720 | 12 | 273 | 0.0 | 3.2 | 0.00 | 1.78 | 1.78 | 99 | 1005.0 |
| 20260510031216 | 12 | 281 | 0.0 | 1.6 | 0.00 | 1.78 | 1.78 | 99 | 1005.3 |
| 20260510030715 | 12 | 251 | 1.6 | 1.6 | 0.00 | 1.78 | 1.78 | 99 | 1005.1 |
| 20260510030213 | 12 | 271 | 0.0 | 0.0 | 0.00 | 1.78 | 1.78 | 99 | 1005.1 |
| 20260510025710 | 12 | 251 | 0.0 | 0.0 | 0.00 | 1.78 | 1.78 | 99 | 1005.0 |
| 20260510025208 | 12 | 206 | 0.0 | 1.6 | 0.00 | 1.78 | 1.78 | 99 | 1004.8 |
| 20260510024704 | 12 | 256 | 0.0 | 1.6 | 0.00 | 1.78 | 1.78 | 99 | 1004.8 |
| 20260510024201 | 12 | 286 | 0.0 | 1.6 | 0.48 | 1.78 | 1.78 | 99 | 1004.8 |
| 20260510023656 | 12 | 277 | 0.0 | 3.2 | 1.37 | 1.78 | 1.78 | 99 | 1004.9 |
| 20260510023154 | 12 | 272 | 1.6 | 3.2 | 1.27 | 1.68 | 1.68 | 99 | 1005.3 |
| 20260510022649 | 12 | 117 | 1.6 | 4.8 | 0.79 | 1.52 | 1.52 | 99 | 1006.0 |
| 20260510022144 | 12 | 241 | 0.0 | 3.2 | 0.30 | 1.45 | 1.45 | 99 | 1005.2 |
| 20260510021640 | 12 | 284 | 0.0 | 1.6 | 0.00 | 1.40 | 1.40 | 99 | 1004.8 |
| 20260510021138 | 12 | 249 | 1.6 | 1.6 | 0.00 | 1.40 | 1.40 | 99 | 1004.1 |
| 20260510020638 | 12 | 251 | 0.0 | 1.6 | 0.00 | 1.40 | 1.40 | 99 | 1003.9 |
| 20260510020133 | 12 | 276 | 0.0 | 1.6 | 0.00 | 1.40 | 1.40 | 99 | 1004.3 |
| 20260510015629 | 12 | 276 | 0.0 | 1.6 | 0.00 | 1.40 | 1.40 | 99 | 1004.5 |
| 20260510015126 | 12 | 281 | 1.6 | 3.2 | 0.00 | 1.40 | 1.40 | 99 | 1004.3 |
| 20260510014621 | 12 | 278 | 0.0 | 1.6 | 0.00 | 1.40 | 1.40 | 99 | 1004.5 |
| 20260510014119 | 12 | 216 | 1.6 | 3.2 | 0.00 | 1.40 | 1.40 | 99 | 1004.3 |
| 20260510013619 | 12 | 291 | 0.0 | 3.2 | 0.00 | 1.40 | 1.40 | 99 | 1003.9 |
| 20260510013115 | 12 | 314 | 0.0 | 1.6 | 0.00 | 1.40 | 1.40 | 99 | 1004.2 |
| 20260510012614 | 12 | 251 | 0.0 | 3.2 | 0.00 | 1.40 | 1.40 | 99 | 1004.0 |
| 20260510012111 | 12 | 254 | 0.0 | 1.6 | 0.00 | 1.40 | 1.40 | 99 | 1003.6 |
| 20260510011610 | 12 | 278 | 0.0 | 0.0 | 0.00 | 1.40 | 1.40 | 99 | 1003.7 |
| 20260510011106 | 12 | 274 | 0.0 | 0.0 | 0.00 | 1.40 | 1.40 | 99 | 1003.5 |
| 20260510010603 | 12 | 283 | 0.0 | 0.0 | 0.00 | 1.40 | 1.40 | 99 | 1003.6 |
| 20260510010100 | 12 | 283 | 0.0 | 1.6 | 0.00 | 1.40 | 1.40 | 99 | 1003.3 |
| 20260510005555 | 12 | 272 | 0.0 | 1.6 | 0.00 | 1.40 | 1.40 | 99 | 1003.8 |
| 20260510005054 | 12 | 262 | 0.0 | 8.0 | 0.00 | 1.40 | 1.40 | 99 | 1003.7 |
| 20260510004551 | 12 | 318 | 1.6 | 8.0 | 0.18 | 1.40 | 1.40 | 99 | 1003.2 |
| 20260510004049 | 12 | 279 | 0.0 | 3.2 | 0.18 | 1.40 | 1.40 | 99 | 1003.2 |
| 20260510003545 | 12 | 344 | 0.0 | 4.8 | 0.00 | 1.37 | 1.37 | 99 | 1004.2 |
| 20260510003041 | 12 | 351 | 3.2 | 4.8 | 0.00 | 1.37 | 1.37 | 99 | 1004.0 |
| 20260510002536 | 12 | 262 | 1.6 | 8.0 | 0.13 | 1.37 | 1.37 | 99 | 1003.9 |
| 20260510002034 | 12 | 274 | 0.0 | 3.2 | 0.30 | 1.37 | 1.37 | 99 | 1003.9 |
| 20260510001531 | 12 | 295 | 1.6 | 3.2 | 0.48 | 1.35 | 1.35 | 98 | 1003.7 |
| 20260510001029 | 12 | 313 | 0.0 | 11.3 | 1.07 | 1.32 | 1.32 | 98 | 1003.7 |
| 20260510000524 | 12 | 217 | 4.8 | 16.1 | 1.98 | 1.27 | 1.27 | 96 | 1003.7 |
| 20260510000021 | 13 | 332 | 4.8 | 22.5 | 1.68 | 1.14 | 1.14 | 93 | 1003.8 |
| 20260509235518 | 15 | 273 | 4.8 | 16.1 | 0.36 | 0.91 | 0.91 | 88 | 1003.8 |
| 20260509235015 | 16 | 215 | 9.7 | 17.7 | 0.00 | 0.86 | 0.86 | 78 | 1003.2 |
| 20260509234511 | 18 | 285 | 3.2 | 8.0 | 0.00 | 0.86 | 0.86 | 71 | 1003.1 |
| 20260509234009 | 18 | 164 | 1.6 | 3.2 | 0.00 | 0.86 | 0.86 | 68 | 1002.2 |
| 20260509233501 | 18 | 267 | 3.2 | 3.2 | 0.00 | 0.86 | 0.86 | 67 | 1001.9 |
| 20260509232957 | 19 | 198 | 3.2 | 9.7 | 0.00 | 0.86 | 0.86 | 64 | 1001.7 |
| 20260509232455 | 19 | 264 | 1.6 | 3.2 | 0.00 | 0.86 | 0.86 | 63 | 1001.7 |
| 20260509231950 | 19 | 344 | 4.8 | 8.0 | 0.00 | 0.86 | 0.86 | 63 | 1001.7 |
| 20260509231447 | 19 | 79 | 3.2 | 8.0 | 0.00 | 0.86 | 0.86 | 63 | 1001.6 |
| 20260509230945 | 19 | 71 | 3.2 | 9.7 | 0.00 | 0.86 | 0.86 | 62 | 1001.5 |
| 20260509230442 | 20 | 77 | 4.8 | 8.0 | 0.00 | 0.86 | 0.86 | 62 | 1001.5 |
| 20260509225938 | 20 | 52 | 1.6 | 4.8 | 0.00 | 0.86 | 0.86 | 62 | 1001.4 |
| 20260509225435 | 20 | 169 | 1.6 | 12.9 | 0.00 | 0.86 | 0.86 | 61 | 1001.2 |
| 20260509224931 | 20 | 208 | 3.2 | 12.9 | 0.00 | 0.86 | 0.86 | 60 | 1001.5 |
| 20260509224426 | 20 | 292 | 4.8 | 12.9 | 0.00 | 0.86 | 0.86 | 61 | 1001.6 |
| 20260509223923 | 20 | 228 | 3.2 | 11.3 | 0.00 | 0.86 | 0.86 | 62 | 1001.6 |
| 20260509223419 | 20 | 153 | 1.6 | 11.3 | 0.00 | 0.86 | 0.86 | 61 | 1001.9 |
| 20260509222917 | 20 | 342 | 3.2 | 14.5 | 0.00 | 0.86 | 0.86 | 60 | 1001.6 |
| 20260509222406 | 20 | 82 | 1.6 | 11.3 | 0.00 | 0.86 | 0.86 | 61 | 1001.6 |
| 20260509221901 | 20 | 245 | 3.2 | 4.8 | 0.00 | 0.86 | 0.86 | 62 | 1001.4 |
| 20260509221359 | 20 | 142 | 4.8 | 12.9 | 0.00 | 0.86 | 0.86 | 61 | 1001.5 |
| 20260509220854 | 20 | 162 | 3.2 | 9.7 | 0.00 | 0.86 | 0.86 | 60 | 1001.6 |
| 20260509220345 | 21 | 332 | 4.8 | 11.3 | 0.00 | 0.86 | 0.86 | 60 | 1001.7 |
| 20260509215841 | 21 | 172 | 4.8 | 8.0 | 0.00 | 0.86 | 0.86 | 61 | 1001.6 |
| 20260509215338 | 20 | 276 | 0.0 | 9.7 | 0.00 | 0.86 | 0.86 | 61 | 1001.6 |
| 20260509214834 | 21 | 298 | 1.6 | 12.9 | 0.00 | 0.86 | 0.86 | 60 | 1001.5 |
| 20260509214331 | 21 | 123 | 3.2 | 4.8 | 0.00 | 0.86 | 0.86 | 59 | 1001.6 |
| 20260509213829 | 21 | 294 | 3.2 | 9.7 | 0.00 | 0.86 | 0.86 | 59 | 1001.5 |
| 20260509213324 | 21 | 146 | 1.6 | 14.5 | 0.00 | 0.86 | 0.86 | 60 | 1001.4 |
| 20260509212821 | 21 | 332 | 4.8 | 12.9 | 0.00 | 0.86 | 0.86 | 60 | 1001.7 |
| 20260509212319 | 20 | 354 | 4.8 | 4.8 | 0.00 | 0.86 | 0.86 | 59 | 1001.6 |
| 20260509211815 | 21 | 341 | 6.4 | 11.3 | 0.00 | 0.86 | 0.86 | 59 | 1001.7 |
| 20260509211311 | 21 | 271 | 1.6 | 9.7 | 0.00 | 0.86 | 0.86 | 60 | 1001.9 |
| 20260509210808 | 21 | 280 | 4.8 | 11.3 | 0.00 | 0.86 | 0.86 | 59 | 1001.7 |
| 20260509210305 | 21 | 350 | 3.2 | 14.5 | 0.00 | 0.86 | 0.86 | 59 | 1001.9 |
| 20260509205804 | 21 | 145 | 3.2 | 9.7 | 0.00 | 0.86 | 0.86 | 59 | 1001.8 |
| 20260509205254 | 20 | 228 | 3.2 | 4.8 | 0.00 | 0.86 | 0.86 | 60 | 1002.1 |
| 20260509204750 | 21 | 55 | 3.2 | 11.3 | 0.00 | 0.86 | 0.86 | 60 | 1002.5 |
| 20260509204247 | 21 | 294 | 1.6 | 8.0 | 0.00 | 0.86 | 0.86 | 60 | 1002.4 |
| 20260509203743 | 21 | 186 | 4.8 | 9.7 | 0.00 | 0.86 | 0.86 | 59 | 1002.3 |
| 20260509203241 | 20 | 144 | 3.2 | 9.7 | 0.00 | 0.86 | 0.86 | 59 | 1002.2 |
| 20260509202737 | 21 | 258 | 6.4 | 9.7 | 0.00 | 0.86 | 0.86 | 60 | 1002.5 |
| 20260509202233 | 20 | 305 | 1.6 | 4.8 | 0.00 | 0.86 | 0.86 | 62 | 1002.4 |
| 20260509201732 | 20 | 239 | 4.8 | 9.7 | 0.00 | 0.86 | 0.86 | 60 | 1002.5 |
| 20260509201229 | 21 | 314 | 4.8 | 8.0 | 0.00 | 0.86 | 0.86 | 60 | 1002.7 |
| 20260509200726 | 21 | 255 | 1.6 | 8.0 | 0.00 | 0.86 | 0.86 | 63 | 1002.7 |
| 20260509200221 | 20 | 134 | 3.2 | 4.8 | 0.00 | 0.86 | 0.86 | 63 | 1002.6 |
| 20260509195717 | 21 | 62 | 3.2 | 4.8 | 0.00 | 0.86 | 0.86 | 62 | 1002.5 |
| 20260509195212 | 20 | 110 | 1.6 | 4.8 | 0.00 | 0.86 | 0.86 | 64 | 1002.8 |
| 20260509194707 | 19 | 196 | 1.6 | 4.8 | 0.00 | 0.86 | 0.86 | 65 | 1002.7 |
| 20260509194204 | 20 | 216 | 6.4 | 11.3 | 0.00 | 0.86 | 0.86 | 63 | 1002.8 |
| 20260509193701 | 20 | 127 | 8.0 | 11.3 | 0.00 | 0.86 | 0.86 | 63 | 1002.9 |
| 20260509193156 | 20 | 6 | 1.6 | 3.2 | 0.00 | 0.86 | 0.86 | 63 | 1002.9 |
| 20260509192652 | 20 | 241 | 6.4 | 12.9 | 0.00 | 0.86 | 0.86 | 65 | 1002.9 |
| 20260509192147 | 20 | 206 | 1.6 | 9.7 | 0.00 | 0.86 | 0.86 | 66 | 1003.2 |
| 20260509191642 | 20 | 136 | 4.8 | 11.3 | 0.00 | 0.86 | 0.86 | 67 | 1003.0 |
| 20260509191138 | 20 | 306 | 1.6 | 8.0 | 0.00 | 0.86 | 0.86 | 66 | 1003.2 |
| 20260509190634 | 20 | 336 | 3.2 | 12.9 | 0.00 | 0.86 | 0.86 | 65 | 1003.4 |
| 20260509190127 | 19 | 323 | 1.6 | 8.0 | 0.00 | 0.86 | 0.86 | 68 | 1003.4 |
| 20260509185624 | 19 | 195 | 1.6 | 8.0 | 0.00 | 0.86 | 0.86 | 67 | 1003.4 |
| 20260509185119 | 19 | 145 | 3.2 | 4.8 | 0.00 | 0.86 | 0.86 | 67 | 1003.2 |
| 20260509184612 | 20 | 19 | 6.4 | 9.7 | 0.00 | 0.86 | 0.86 | 67 | 1003.3 |
| 20260509184108 | 20 | 93 | 3.2 | 12.9 | 0.00 | 0.86 | 0.86 | 67 | 1003.3 |
| 20260509183603 | 19 | 324 | 3.2 | 4.8 | 0.00 | 0.86 | 0.86 | 68 | 1003.2 |
| 20260509183059 | 20 | 152 | 1.6 | 9.7 | 0.00 | 0.86 | 0.86 | 67 | 1003.3 |
| 20260509182556 | 19 | 93 | 6.4 | 11.3 | 0.00 | 0.86 | 0.86 | 67 | 1003.3 |
| 20260509182053 | 20 | 184 | 4.8 | 11.3 | 0.00 | 0.86 | 0.86 | 67 | 1003.6 |
| 20260509181551 | 19 | 34 | 1.6 | 8.0 | 0.00 | 0.86 | 0.86 | 66 | 1003.4 |
| 20260509181048 | 20 | 47 | 1.6 | 9.7 | 0.00 | 0.86 | 0.86 | 65 | 1003.6 |
| 20260509180543 | 19 | 38 | 3.2 | 12.9 | 0.00 | 0.86 | 0.86 | 67 | 1003.5 |
| 20260509180042 | 20 | 299 | 3.2 | 14.5 | 0.00 | 0.86 | 0.86 | 68 | 1003.3 |
| 20260509175537 | 19 | 317 | 4.8 | 8.0 | 0.00 | 0.86 | 0.86 | 67 | 1003.5 |
| 20260509175034 | 19 | 31 | 3.2 | 12.9 | 0.00 | 0.86 | 0.86 | 68 | 1003.5 |
| 20260509174530 | 19 | 258 | 3.2 | 11.3 | 0.00 | 0.86 | 0.86 | 67 | 1003.5 |
| 20260509174026 | 19 | 60 | 1.6 | 4.8 | 0.00 | 0.86 | 0.86 | 68 | 1003.6 |
| 20260509173520 | 18 | 66 | 3.2 | 12.9 | 0.00 | 0.86 | 0.86 | 71 | 1003.7 |
| 20260509173017 | 18 | 162 | 4.8 | 4.8 | 0.00 | 0.86 | 0.86 | 69 | 1003.6 |
| 20260509172514 | 18 | 244 | 3.2 | 8.0 | 0.00 | 0.86 | 0.86 | 71 | 1003.5 |
| 20260509172009 | 18 | 95 | 4.8 | 9.7 | 0.00 | 0.86 | 0.86 | 71 | 1003.5 |
| 20260509171506 | 18 | 205 | 1.6 | 3.2 | 0.00 | 0.86 | 0.86 | 74 | 1003.4 |
| 20260509171002 | 18 | 89 | 3.2 | 8.0 | 0.00 | 0.86 | 0.86 | 71 | 1003.7 |
| 20260509170458 | 18 | 278 | 0.0 | 8.0 | 0.00 | 0.86 | 0.86 | 72 | 1003.5 |
| 20260509165953 | 17 | 3 | 3.2 | 4.8 | 0.00 | 0.86 | 0.86 | 73 | 1003.4 |
| 20260509165452 | 17 | 350 | 3.2 | 4.8 | 0.00 | 0.86 | 0.86 | 74 | 1003.8 |
| 20260509164949 | 17 | 93 | 0.0 | 16.1 | 0.00 | 0.86 | 0.86 | 75 | 1004.0 |
| 20260509164444 | 17 | 289 | 3.2 | 9.7 | 0.00 | 0.86 | 0.86 | 71 | 1003.8 |
| 20260509163940 | 18 | 136 | 1.6 | 4.8 | 0.00 | 0.86 | 0.86 | 72 | 1004.0 |
| 20260509163438 | 17 | 293 | 0.0 | 8.0 | 0.00 | 0.86 | 0.86 | 74 | 1003.9 |
| 20260509162937 | 17 | 127 | 6.4 | 9.7 | 0.00 | 0.86 | 0.86 | 75 | 1004.0 |
| 20260509162436 | 17 | 265 | 1.6 | 4.8 | 0.00 | 0.86 | 0.86 | 76 | 1003.9 |
| 20260509161932 | 17 | 93 | 3.2 | 4.8 | 0.00 | 0.86 | 0.86 | 74 | 1003.8 |
| 20260509161429 | 17 | 266 | 3.2 | 8.0 | 0.00 | 0.86 | 0.86 | 75 | 1003.7 |
| 20260509160924 | 16 | 317 | 1.6 | 9.7 | 0.00 | 0.86 | 0.86 | 79 | 1003.8 |
| 20260509160420 | 17 | 33 | 3.2 | 4.8 | 0.00 | 0.86 | 0.86 | 77 | 1003.9 |
| 20260509155915 | 17 | 259 | 0.0 | 4.8 | 0.00 | 0.86 | 0.86 | 79 | 1003.7 |
| 20260509155412 | 17 | 225 | 1.6 | 4.8 | 0.00 | 0.86 | 0.86 | 82 | 1003.8 |
| 20260509154908 | 16 | 21 | 1.6 | 4.8 | 0.00 | 0.86 | 0.86 | 82 | 1003.9 |
| 20260509154405 | 16 | 330 | 1.6 | 3.2 | 0.00 | 0.86 | 0.86 | 82 | 1003.8 |
| 20260509153901 | 16 | 260 | 3.2 | 8.0 | 0.00 | 0.86 | 0.86 | 82 | 1003.9 |
| 20260509153359 | 15 | 179 | 1.6 | 3.2 | 0.00 | 0.86 | 0.86 | 86 | 1004.1 |
| 20260509152856 | 15 | 103 | 3.2 | 4.8 | 0.00 | 0.86 | 0.86 | 87 | 1004.1 |
| 20260509152352 | 14 | 245 | 1.6 | 9.7 | 0.00 | 0.86 | 0.86 | 88 | 1004.0 |
| 20260509151849 | 15 | 258 | 1.6 | 8.0 | 0.00 | 0.86 | 0.86 | 89 | 1004.0 |
| 20260509151345 | 14 | 240 | 0.0 | 4.8 | 0.00 | 0.86 | 0.86 | 90 | 1004.1 |
| 20260509150843 | 14 | 252 | 4.8 | 8.0 | 0.00 | 0.86 | 0.86 | 91 | 1004.0 |
| 20260509150341 | 13 | 341 | 0.0 | 3.2 | 0.00 | 0.86 | 0.86 | 92 | 1003.9 |
| 20260509145838 | 13 | 312 | 1.6 | 3.2 | 0.00 | 0.86 | 0.86 | 92 | 1003.9 |
| 20260509145332 | 13 | 269 | 1.6 | 4.8 | 0.00 | 0.86 | 0.86 | 92 | 1003.9 |
| 20260509144830 | 13 | 284 | 1.6 | 3.2 | 0.00 | 0.86 | 0.86 | 93 | 1004.0 |
| 20260509144326 | 13 | 291 | 1.6 | 11.3 | 0.00 | 0.86 | 0.86 | 95 | 1003.6 |
| 20260509143823 | 13 | 17 | 1.6 | 9.7 | 0.00 | 0.86 | 0.86 | 97 | 1003.7 |
| 20260509143321 | 13 | 135 | 1.6 | 3.2 | 0.00 | 0.86 | 0.86 | 99 | 1003.7 |
| 20260509142817 | 12 | 320 | 3.2 | 4.8 | 0.00 | 0.86 | 0.86 | 99 | 1003.7 |
| 20260509142313 | 12 | 219 | 3.2 | 4.8 | 0.00 | 0.86 | 0.86 | 99 | 1003.8 |
| 20260509141809 | 12 | 286 | 1.6 | 9.7 | 0.00 | 0.86 | 0.86 | 99 | 1003.8 |
| 20260509141306 | 12 | 111 | 1.6 | 3.2 | 0.00 | 0.86 | 0.86 | 99 | 1003.9 |
| 20260509140802 | 12 | 311 | 1.6 | 1.6 | 0.00 | 0.86 | 0.86 | 99 | 1003.7 |
| 20260509140259 | 12 | 245 | 1.6 | 8.0 | 0.00 | 0.86 | 0.86 | 99 | 1003.7 |
| 20260509135758 | 11 | 350 | 1.6 | 8.0 | 0.00 | 0.86 | 0.86 | 99 | 1003.7 |
| 20260509135255 | 11 | 204 | 1.6 | 3.2 | 0.00 | 0.86 | 0.86 | 99 | 1003.9 |
| 20260509134752 | 12 | 341 | 4.8 | 4.8 | 0.00 | 0.86 | 0.86 | 99 | 1003.9 |
| 20260509134249 | 12 | 290 | 0.0 | 3.2 | 0.00 | 0.86 | 0.86 | 99 | 1003.4 |
| 20260509133746 | 12 | 140 | 8.0 | 16.1 | 0.00 | 0.86 | 0.86 | 99 | 1003.8 |
| 20260509133243 | 12 | 86 | 1.6 | 1.6 | 0.00 | 0.86 | 0.86 | 99 | 1003.9 |
| 20260509132742 | 12 | 115 | 1.6 | 4.8 | 0.00 | 0.86 | 0.86 | 99 | 1003.9 |
| 20260509132240 | 12 | 189 | 3.2 | 4.8 | 0.00 | 0.86 | 0.86 | 99 | 1004.0 |
| 20260509131736 | 12 | 290 | 0.0 | 3.2 | 0.00 | 0.86 | 0.86 | 99 | 1003.8 |
| 20260509131232 | 11 | 293 | 0.0 | 3.2 | 0.00 | 0.86 | 0.86 | 99 | 1004.1 |
| 20260509130729 | 11 | 236 | 0.0 | 1.6 | 0.00 | 0.86 | 0.86 | 99 | 1004.0 |
| 20260509130225 | 11 | 285 | 1.6 | 1.6 | 0.00 | 0.86 | 0.86 | 99 | 1004.1 |
| 20260509125721 | 11 | 275 | 0.0 | 1.6 | 0.00 | 0.86 | 0.86 | 99 | 1004.1 |
| 20260509125219 | 11 | 273 | 0.0 | 1.6 | 0.00 | 0.86 | 0.86 | 99 | 1004.0 |
| 20260509124715 | 11 | 277 | 0.0 | 1.6 | 0.00 | 0.86 | 0.86 | 99 | 1004.0 |
| 20260509124212 | 11 | 252 | 1.6 | 1.6 | 0.00 | 0.86 | 0.86 | 99 | 1004.2 |
| 20260509123710 | 11 | 230 | 0.0 | 1.6 | 0.00 | 0.86 | 0.86 | 99 | 1004.1 |
| 20260509123207 | 11 | 248 | 0.0 | 0.0 | 0.00 | 0.86 | 0.86 | 99 | 1004.3 |
| 20260509122702 | 11 | 233 | 3.2 | 4.8 | 0.00 | 0.86 | 0.86 | 99 | 1004.3 |
| 20260509122159 | 11 | 290 | 1.6 | 3.2 | 0.00 | 0.86 | 0.86 | 99 | 1004.2 |
| 20260509121656 | 11 | 281 | 0.0 | 0.0 | 0.00 | 0.86 | 0.86 | 99 | 1004.2 |
| 20260509121154 | 11 | 225 | 1.6 | 3.2 | 0.00 | 0.86 | 0.86 | 99 | 1004.1 |
| 20260509120652 | 11 | 275 | 0.0 | 3.2 | 0.00 | 0.86 | 0.86 | 99 | 1004.0 |
| 20260509120149 | 11 | 277 | 0.0 | 0.0 | 0.00 | 0.86 | 0.86 | 99 | 1004.3 |
| 20260509115647 | 11 | 312 | 0.0 | 0.0 | 0.00 | 0.86 | 0.86 | 99 | 1004.3 |
| 20260509115144 | 11 | 279 | 0.0 | 1.6 | 0.00 | 0.86 | 0.86 | 99 | 1004.0 |
| 20260509114642 | 11 | 276 | 0.0 | 3.2 | 0.00 | 0.86 | 0.86 | 99 | 1004.2 |
| 20260509114141 | 11 | 133 | 3.2 | 3.2 | 0.00 | 0.86 | 0.86 | 99 | 1004.2 |
| 20260509113639 | 10 | 256 | 1.6 | 1.6 | 0.00 | 0.86 | 0.86 | 99 | 1004.1 |
| 20260509113136 | 10 | 277 | 0.0 | 1.6 | 0.00 | 0.86 | 0.86 | 99 | 1003.9 |
| 20260509112632 | 10 | 249 | 0.0 | 3.2 | 0.00 | 0.86 | 0.86 | 99 | 1004.1 |
| 20260509112130 | 10 | 251 | 0.0 | 1.6 | 0.00 | 0.86 | 0.86 | 99 | 1004.1 |
| 20260509111626 | 10 | 342 | 0.0 | 1.6 | 0.00 | 0.86 | 0.86 | 99 | 1004.1 |
| 20260509111123 | 10 | 193 | 1.6 | 3.2 | 0.00 | 0.86 | 0.86 | 99 | 1004.0 |
| 20260509110620 | 10 | 281 | 0.0 | 3.2 | 0.00 | 0.86 | 0.86 | 99 | 1004.0 |
| 20260509110117 | 10 | 274 | 0.0 | 1.6 | 0.00 | 0.86 | 0.86 | 99 | 1003.7 |
| 20260509105616 | 10 | 277 | 0.0 | 4.8 | 0.00 | 0.86 | 0.86 | 99 | 1004.0 |
| 20260509105113 | 10 | 298 | 1.6 | 1.6 | 0.00 | 0.86 | 0.86 | 99 | 1004.0 |